FW6299 Weather Reports


time (UTC)temp
C
wind
direction
speed
KPH
gust
KPH
rain 1hr
cm
rain 24hr
cm
rain mn
cm
humidity
%
barometer
mb
20260509000014 17 212 0.0 6.4 0.00 0.00 0.00 46 1012.8
20260508234507 18 240 0.0 1.6 0.00 0.00 0.00 46 1012.6
20260508233011 18 216 0.0 3.2 0.00 0.00 0.00 46 1012.6
20260508231511 19 207 0.0 3.2 0.00 0.00 0.00 46 1012.6
20260508230013 19 204 0.0 4.8 0.00 0.00 0.00 47 1012.7
20260508224513 20 360 0.0 4.8 0.00 0.00 0.00 47 1012.7
20260508223055 19 322 0.0 4.8 0.00 0.00 0.00 44 1012.8
20260508221600 20 232 0.0 6.4 0.00 0.00 0.00 46 1012.8
20260508220056 19 195 0.0 3.2 0.00 0.00 0.00 45 1012.8
20260508220004 19 220 0.0 3.2 0.00 0.00 0.00 44 1012.8
20260508214503 19 241 0.0 4.8 0.00 0.00 0.00 45 1013.1
20260508213010 20 78 0.0 4.8 0.00 0.00 0.00 44 1012.8
20260508211506 20 267 0.0 4.8 0.00 0.00 0.00 42 1012.8
20260508210011 20 5 0.0 3.2 0.00 0.00 0.00 44 1012.8
20260508204515 20 11 0.0 11.3 0.00 0.00 0.00 41 1013.0
20260508203019 21 340 0.0 4.8 0.00 0.00 0.00 36 1013.0
20260508201522 20 277 0.0 8.0 0.00 0.00 0.00 41 1013.2
20260508200039 21 144 0.0 6.4 0.00 0.00 0.00 42 1013.9
20260508194534 20 80 0.0 11.3 0.00 0.00 0.00 46 1014.3
20260508191539 20 280 0.0 4.8 0.00 0.00 0.00 40 1014.7
20260508190049 20 5 0.0 9.7 0.00 0.00 0.00 42 1014.8
20260508184547 19 190 1.6 9.7 0.00 0.00 0.00 39 1015.2
20260508183049 18 5 1.6 12.9 0.00 0.00 0.00 42 1015.3
20260508181615 18 309 0.0 11.3 0.00 0.00 0.00 36 1015.5
20260508180006 18 103 0.0 11.3 0.00 0.00 0.00 40 1015.7
20260508174517 18 124 0.0 12.9 0.00 0.00 0.00 36 1015.7
20260508173058 18 342 1.6 8.0 0.00 0.00 0.00 48 1016.0
20260508171557 17 10 1.6 6.4 0.00 0.00 0.00 47 1016.4
20260508170059 17 86 0.0 11.3 0.00 0.05 0.00 47 1016.9
20260508164602 17 215 0.0 14.5 0.00 0.05 0.00 48 1017.2
20260508164505 17 215 0.0 14.5 0.00 0.05 0.00 48 1017.2
20260508163058 16 286 1.6 8.0 0.00 0.05 0.00 47 1017.4
20260508163002 16 286 1.6 8.0 0.00 0.05 0.00 50 1017.4
20260508161509 16 13 0.0 1.6 0.00 0.05 0.00 48 1017.6
20260508160032 16 68 0.0 6.4 0.00 0.05 0.00 54 1017.8
20260508154516 16 25 3.2 11.3 0.00 0.05 0.00 47 1018.1
20260508153022 16 302 0.0 4.8 0.00 0.05 0.00 50 1018.1
20260508151524 15 67 0.0 6.4 0.00 0.05 0.00 53 1018.3
20260508150021 14 219 0.0 6.4 0.00 0.10 0.00 51 1018.3
20260508144522 13 197 3.2 8.0 0.00 0.10 0.00 65 1018.4
20260508143031 13 196 0.0 6.4 0.00 0.10 0.00 74 1018.4
20260508141542 13 186 3.2 8.0 0.00 0.10 0.00 73 1018.4
20260508140026 13 82 0.0 0.0 0.00 0.10 0.00 83 1018.4
20260508134512 12 124 0.0 0.0 0.00 0.10 0.00 83 1018.3
20260508133020 12 138 0.0 0.0 0.00 0.10 0.00 83 1018.4
20260508131518 12 103 0.0 0.0 0.00 0.10 0.00 86 1018.4
20260508130020 10 103 0.0 0.0 0.00 0.13 0.00 88 1018.2
20260508124520 9 101 0.0 0.0 0.00 0.13 0.00 91 1018.4
20260508123100 8 103 0.0 0.0 0.00 0.13 0.00 93 1018.4
20260508123003 8 103 0.0 0.0 0.00 0.13 0.00 94 1018.3
20260508121506 7 100 0.0 0.0 0.00 0.13 0.00 94 1018.2
20260508120008 7 100 0.0 0.0 0.00 0.13 0.00 95 1017.9
20260508114511 6 100 0.0 4.8 0.00 0.13 0.00 95 1017.6
20260508113016 6 101 0.0 3.2 0.00 0.13 0.00 95 1017.5
20260508111517 6 121 0.0 0.0 0.00 0.13 0.00 95 1017.2
20260508110021 5 121 0.0 1.6 0.00 0.15 0.00 94 1017.0
20260508104523 5 128 0.0 0.0 0.00 0.15 0.00 92 1016.9
20260508103030 5 128 0.0 0.0 0.00 0.15 0.00 92 1016.8
20260508101537 5 128 0.0 1.6 0.00 0.15 0.00 91 1016.6
20260508100030 6 219 0.0 0.0 0.00 0.15 0.00 90 1016.5
20260508094549 6 219 0.0 0.0 0.00 0.15 0.00 90 1016.4
20260508093040 6 219 0.0 0.0 0.00 0.15 0.00 89 1016.3
20260508091539 6 219 0.0 0.0 0.00 0.15 0.00 89 1016.2
20260508090058 6 219 0.0 0.0 0.00 0.18 0.00 87 1016.3
20260508084547 7 219 0.0 0.0 0.00 0.18 0.00 88 1016.2
20260508083115 7 219 0.0 0.0 0.00 0.18 0.00 88 1015.9
20260508081552 7 219 0.0 0.0 0.00 0.18 0.00 88 1016.0
20260508080051 7 219 0.0 1.6 0.00 0.18 0.00 89 1016.0
20260508074555 7 219 0.0 0.0 0.00 0.18 0.00 88 1016.0
20260508073002 7 219 0.0 0.0 0.00 0.18 0.00 88 1016.1
20260508071506 8 219 0.0 0.0 0.00 0.18 0.00 87 1016.1
20260508070011 8 219 0.0 0.0 0.00 0.20 0.00 87 1016.0
20260508064528 8 219 0.0 0.0 0.00 0.20 0.00 87 1015.8
20260508063052 8 219 0.0 0.0 0.00 0.20 0.00 88 1015.9
20260508061559 8 219 0.0 0.0 0.00 0.20 0.00 89 1015.9
20260508060002 9 219 0.0 0.0 0.00 0.20 0.00 89 1015.9
20260508054507 8 219 0.0 0.0 0.00 0.20 0.00 90 1016.0
20260508053020 8 219 0.0 0.0 0.00 0.20 0.00 92 1016.1
20260508051515 8 219 0.0 0.0 0.00 0.20 0.00 92 1016.1
20260508050025 9 219 0.0 0.0 0.00 0.20 0.00 92 1015.9
20260508044521 9 219 0.0 0.0 0.00 0.20 0.00 92 1015.7
20260508043024 9 219 0.0 0.0 0.00 0.20 0.00 92 1015.6
20260508041505 9 219 0.0 0.0 0.00 0.20 0.00 91 1015.4
20260508040001 10 219 0.0 0.0 0.00 0.23 0.20 91 1015.2
20260508034502 10 219 0.0 0.0 0.00 0.23 0.20 91 1015.2
20260508033057 10 219 0.0 0.0 0.00 0.23 0.20 91 1015.1
20260508031539 11 219 0.0 0.0 0.00 0.23 0.20 92 1015.2
20260508030045 11 219 0.0 0.0 0.00 0.23 0.20 92 1015.4
20260508024547 11 219 0.0 0.0 0.00 0.23 0.20 91 1015.2
20260508023049 11 219 1.6 4.8 0.00 0.23 0.20 91 1014.8
20260508021547 11 219 0.0 0.0 0.00 0.23 0.20 90 1014.5
20260508020057 11 219 0.0 0.0 0.00 0.23 0.20 90 1014.4
20260508014557 11 219 0.0 1.6 0.00 0.23 0.20 90 1014.2
20260508013051 12 219 0.0 0.0 0.00 0.23 0.20 89 1013.8
20260508011553 12 219 0.0 0.0 0.00 0.23 0.20 88 1013.6
20260508010058 12 219 1.6 6.4 0.00 0.25 0.20 87 1013.2
20260508010002 12 219 3.2 6.4 0.00 0.25 0.20 87 1013.2
20260508004514 13 225 0.0 6.4 0.00 0.25 0.20 85 1013.2
20260508003033 13 160 3.2 9.7 0.00 0.25 0.20 84 1013.0
20260508001516 14 236 0.0 0.0 0.00 0.25 0.20 78 1012.8